TimeEDT,TemperatureF,Dew PointF,Humidity,Sea Level PressureIn,VisibilityMPH,Wind Direction,Wind SpeedMPH,Gust SpeedMPH,PrecipitationIn,Events,Conditions,WindDirDegrees,DateUTC
12:51 AM,61.0,36.0,39,29.87,10.0,South,8.1,-,N/A,,Overcast,170,2013-03-11 04:51:00
1:51 AM,62.1,36.0,38,29.86,10.0,South,9.2,-,N/A,,Overcast,170,2013-03-11 05:51:00
2:51 AM,61.0,37.9,42,29.85,10.0,South,16.1,21.9,0.00,Rain,Light Rain,170,2013-03-11 06:51:00
3:51 AM,60.1,36.0,41,29.83,10.0,South,10.4,-,0.00,,Overcast,170,2013-03-11 07:51:00
4:51 AM,54.0,44.1,69,29.85,5.0,SSW,5.8,-,0.04,Rain,Rain,210,2013-03-11 08:51:00
5:51 AM,51.1,46.9,86,29.85,10.0,Calm,Calm,-,0.06,Rain,Light Rain,0,2013-03-11 09:51:00
6:51 AM,51.1,46.9,86,29.84,10.0,ESE,6.9,-,0.04,Rain,Light Rain,110,2013-03-11 10:51:00
7:51 AM,53.1,43.0,69,29.83,10.0,SE,5.8,-,0.00,Rain,Light Rain,140,2013-03-11 11:51:00
8:51 AM,53.1,41.0,64,29.82,10.0,SE,8.1,-,N/A,,Overcast,140,2013-03-11 12:51:00
9:51 AM,52.0,42.1,69,29.84,6.0,SSE,8.1,-,0.04,Rain,Light Rain,160,2013-03-11 13:51:00
10:51 AM,51.1,44.1,77,29.80,8.0,SE,10.4,-,0.09,Rain,Light Rain,140,2013-03-11 14:51:00
11:51 AM,52.0,45.0,77,29.74,10.0,SE,10.4,-,0.04,Rain,Light Rain,130,2013-03-11 15:51:00
12:51 PM,54.0,45.0,72,29.72,10.0,SE,17.3,-,0.00,Rain,Light Rain,140,2013-03-11 16:51:00
1:51 PM,55.9,46.0,69,29.68,10.0,SSE,23.0,31.1,0.00,Rain,Light Rain,150,2013-03-11 17:51:00
2:51 PM,57.0,46.9,69,29.65,10.0,SSE,20.7,26.5,0.00,Rain,Light Rain,160,2013-03-11 18:51:00
3:51 PM,57.0,48.0,72,29.62,10.0,SSE,23.0,32.2,0.01,Rain,Light Rain,160,2013-03-11 19:51:00
4:51 PM,55.9,50.0,80,29.60,8.0,South,20.7,33.4,0.04,Rain,Light Rain,170,2013-03-11 20:51:00
5:09 PM,55.4,50.0,82,29.63,1.2,WSW,29.9,38.0,0.00,Rain,Heavy Rain,250,2013-03-11 21:09:00
5:13 PM,51.8,48.2,88,29.63,3.0,WSW,17.3,38.0,0.07,Rain,Heavy Rain,240,2013-03-11 21:13:00
5:22 PM,51.8,48.2,88,29.63,5.0,West,16.1,-,0.11,Rain,Light Rain,260,2013-03-11 21:22:00
5:29 PM,50.0,48.2,94,29.64,5.0,West,15.0,-,0.11,Rain,Rain,270,2013-03-11 21:29:00
5:39 PM,50.0,46.4,87,29.64,5.0,West,18.4,-,0.15,Rain,Rain,270,2013-03-11 21:39:00
5:51 PM,48.9,46.0,90,29.65,8.0,West,15.0,24.2,0.15,Rain,Light Rain,260,2013-03-11 21:51:00
6:03 PM,48.2,46.4,93,29.65,9.0,WSW,11.5,-,0.01,Rain,Light Rain,250,2013-03-11 22:03:00
6:27 PM,48.2,44.6,87,29.66,10.0,WSW,17.3,24.2,0.01,,Overcast,250,2013-03-11 22:27:00
6:43 PM,48.2,44.6,87,29.66,10.0,WSW,16.1,-,0.01,,Overcast,250,2013-03-11 22:43:00
6:51 PM,48.9,44.1,83,29.67,10.0,WSW,16.1,-,0.01,,Overcast,240,2013-03-11 22:51:00
7:12 PM,48.2,42.8,82,29.68,7.0,SW,17.3,26.5,0.00,Rain,Light Rain,230,2013-03-11 23:12:00
7:51 PM,48.9,41.0,74,29.71,10.0,SW,12.7,21.9,0.00,,Overcast,230,2013-03-11 23:51:00
8:26 PM,48.2,42.8,82,29.72,10.0,WSW,12.7,-,N/A,,Overcast,240,2013-03-12 00:26:00
8:51 PM,46.4,41.0,81,29.74,10.0,West,17.3,-,N/A,,Overcast,270,2013-03-12 00:51:00
9:48 PM,44.6,37.4,76,29.77,10.0,WSW,16.1,26.5,N/A,,Overcast,250,2013-03-12 01:48:00
9:51 PM,45.0,37.0,74,29.78,10.0,WSW,18.4,26.5,N/A,,Overcast,250,2013-03-12 01:51:00
10:51 PM,44.1,36.0,73,29.81,10.0,West,18.4,-,N/A,,Overcast,260,2013-03-12 02:51:00
11:11 PM,42.8,35.6,76,29.81,10.0,West,15.0,-,N/A,,Overcast,260,2013-03-12 03:11:00
11:37 PM,42.8,33.8,70,29.81,10.0,WSW,16.1,-,N/A,,Overcast,250,2013-03-12 03:37:00
11:51 PM,43.0,35.1,74,29.82,10.0,WSW,13.8,-,N/A,,Overcast,250,2013-03-12 03:51:00